Change the Weather History Date:

Monday, November 26, 2012

  Actual Average Record
Temperature  
Mean Temperature 17 °F 27 °F  
Max Temperature 24 °F 34 °F 59 °F (1914)
Min Temperature 10 °F 20 °F -8 °F (1977)
Degree Days  
Heating Degree Days 48 38  
Month to date heating degree days 755 820  
Since 1 July heating degree days 1614 1704  
Cooling Degree Days 0 0  
Month to date cooling degree days 0 0  
Year to date cooling degree days 725 407  
Moisture  
Dew Point 9 °F    
Average Humidity 67    
Maximum Humidity 81    
Minimum Humidity 52    
Precipitation  
Precipitation T in 0.06 in 1.20 in (1906)
Month to date precipitation 1.27 1.77  
Year to date precipitation 27.85 30.82  
Snow  
Snow T in 0.30 in 8.20 in (1971)
Month to date snowfall 2.2 5.5  
Since 1 July snowfall 2.2 6.9  
Snow Depth 1.00 in    
Sea Level Pressure  
Sea Level Pressure 30.27 in    
Wind  
Wind Speed 8 mph (WNW)    
Max Wind Speed 15 mph    
Max Gust Speed 22 mph    
Visibility 9 miles    
Events Snow    
T = Trace of Precipitation, MM = Missing Value Source: NWS Daily Summary

Daily Weather History Graph

Daily Weather History Graph

Search for Another Location

Airport or City:

Trip Planner

Search our weather history database for the weather conditions in past years. The results will help you decide how hot, cold, wet, or windy it might be!

Date:

Astronomy

Nov. 26, 2012 Rise Set
Actual Time 7:10 AM CST 4:20 PM CST
Civil Twilight 6:38 AM CST 4:53 PM CST
Nautical Twilight 6:01 AM CST 5:29 PM CST
Astronomical Twilight 5:26 AM CST 6:04 PM CST
Moon 3:15 PM CST (11/26) 5:18 AM CST (11/26)
Length of Visible Light 10h 15m
Length of Day
9h 09m
Waxing Gibbous, 97% of the Moon is Illuminated
Nov 26
Waxing Gibbous
Nov 28
Full
Dec 6
Last Quarter
Dec 13
New
Dec 19
First Quarter

Hourly Weather History & Observations

Time (CST) Temp. Windchill Dew Point Humidity Pressure Visibility Wind Dir Wind Speed Gust Speed Precip Events Conditions
12:54 AM 24.1 °F 15.2 °F 19.0 °F 81% 30.10 in 6.0 mi West 8.1 mph - 0.00 in Snow Light Snow
1:38 AM 24.8 °F 16.1 °F 19.4 °F 80% 30.05 in 6.0 mi West 8.1 mph - 0.00 in   Overcast
1:46 AM 24.8 °F 16.9 °F 19.4 °F 80% 30.05 in 5.0 mi West 6.9 mph - 0.00 in Snow Light Snow
1:54 AM 24.1 °F 15.2 °F 19.9 °F 84% 30.12 in 5.0 mi West 8.1 mph - 0.00 in Snow Light Snow
2:54 AM 24.1 °F 17.0 °F 19.9 °F 84% 30.13 in 10.0 mi WNW 5.8 mph - 0.00 in   Overcast
3:54 AM 24.1 °F 15.2 °F 18.0 °F 77% 30.14 in 10.0 mi NW 8.1 mph - N/A   Overcast
4:54 AM 23.0 °F 13.9 °F 12.9 °F 65% 30.17 in 10.0 mi NW 8.1 mph - N/A   Overcast
6:54 AM 18.0 °F 4.8 °F 9.0 °F 68% 30.23 in 10.0 mi North 12.7 mph 17.3 mph N/A   Mostly Cloudy
7:45 AM 15.8 °F 6.1 °F 6.8 °F 68% 30.19 in 10.0 mi NNW 6.9 mph - N/A   Partly Cloudy
7:54 AM 16.0 °F 4.4 °F 7.0 °F 68% 30.27 in 10.0 mi NNW 9.2 mph - N/A   Partly Cloudy
8:54 AM 16.0 °F 3.6 °F 6.1 °F 65% 30.30 in 10.0 mi NW 10.4 mph 17.3 mph N/A   Clear
9:54 AM 16.0 °F 2.3 °F 6.1 °F 65% 30.32 in 10.0 mi WNW 12.7 mph - N/A   Clear
10:54 AM 18.0 °F 6.9 °F 7.0 °F 62% 30.32 in 10.0 mi NNW 9.2 mph - N/A   Clear
11:54 AM 19.9 °F 9.3 °F 8.1 °F 60% 30.33 in 10.0 mi NW 9.2 mph - N/A   Clear
12:54 PM 21.0 °F 12.4 °F 8.1 °F 57% 30.32 in 10.0 mi NW 6.9 mph - N/A   Clear
1:54 PM 21.0 °F 12.4 °F 8.1 °F 57% 30.32 in 10.0 mi WNW 6.9 mph - N/A   Clear
2:54 PM 21.0 °F 9.9 °F 6.1 °F 53% 30.32 in 10.0 mi WNW 10.4 mph - N/A   Clear
3:54 PM 19.9 °F 9.3 °F 7.0 °F 57% 30.33 in 10.0 mi WNW 9.2 mph - N/A   Clear
4:54 PM 17.1 °F 7.6 °F 6.1 °F 62% 30.34 in 10.0 mi West 6.9 mph - N/A   Clear
5:54 PM 15.1 °F 4.2 °F 5.0 °F 64% 30.37 in 10.0 mi WNW 8.1 mph - N/A   Clear
6:54 PM 14.0 °F 6.5 °F 5.0 °F 67% 30.38 in 10.0 mi West 4.6 mph - N/A   Clear
7:54 PM 14.0 °F 2.9 °F 3.9 °F 64% 30.40 in 10.0 mi WNW 8.1 mph - N/A   Clear
8:54 PM 12.9 °F 2.6 °F 3.9 °F 67% 30.39 in 10.0 mi WNW 6.9 mph - N/A   Clear
9:54 PM 12.9 °F 1.6 °F 5.0 °F 71% 30.40 in 10.0 mi WNW 8.1 mph - N/A   Clear
10:54 PM 12.0 °F 4.1 °F 3.9 °F 70% 30.39 in 10.0 mi WNW 4.6 mph - N/A   Clear
11:54 PM 10.9 °F 4.7 °F 3.9 °F 73% 30.39 in 10.0 mi SW 3.5 mph - N/A   Clear